CW1187 Weather Reports


time (UTC)temp
C
wind
direction
speed
KPH
gust
KPH
rain 1hr
cm
rain 24hr
cm
rain mn
cm
humidity
%
barometer
mb
20190326080338 -1 47 4.8 0.0 0.00 0.00 0.00 64 1024.3
20190326075329 -1 45 3.2 0.0 0.00 0.00 0.00 64 1024.3
20190326074329 -1 45 3.2 0.0 0.00 0.00 0.00 64 1024.2
20190326073350 -1 45 3.2 0.0 0.00 0.00 0.00 64 1024.2
20190326072335 -1 42 3.2 0.0 0.00 0.00 0.00 65 1024.2
20190326071341 -1 42 3.2 0.0 0.00 0.00 0.00 65 1024.3
20190326070330 -1 52 3.2 0.0 0.00 0.00 0.00 64 1024.3
20190326065330 -1 52 3.2 0.0 0.00 0.00 0.00 65 1024.2
20190326064352 -1 52 3.2 0.0 0.00 0.00 0.00 66 1024.2
20190326063345 -1 52 3.2 0.0 0.00 0.00 0.00 65 1024.3
20190326062333 -1 51 3.2 0.0 0.00 0.00 0.00 66 1024.3
20190326061333 -1 52 3.2 0.0 0.00 0.00 0.00 65 1024.2
20190326060331 0 52 3.2 0.0 0.00 0.00 0.00 66 1024.2
20190326055338 0 52 1.6 0.0 0.00 0.00 0.00 66 1023.9
20190326054339 0 52 1.6 0.0 0.00 0.00 0.00 66 1023.9
20190326053335 0 52 1.6 0.0 0.00 0.00 0.00 64 1023.9
20190326052331 0 52 1.6 0.0 0.00 0.00 0.00 63 1023.7
20190326051353 0 52 3.2 0.0 0.00 0.00 0.00 64 1023.7
20190326050336 0 52 3.2 0.0 0.00 0.00 0.00 64 1023.6
20190326045342 0 52 3.2 0.0 0.00 0.00 0.00 64 1023.4
20190326044334 0 52 3.2 0.0 0.00 0.00 0.00 64 1023.2
20190326043340 0 52 3.2 0.0 0.00 0.00 0.00 64 1023.2
20190326042327 0 52 3.2 0.0 0.00 0.00 0.00 64 1023.0
20190326041327 0 52 3.2 0.0 0.00 0.00 0.00 64 1022.7
20190326040342 0 52 3.2 0.0 0.00 0.00 0.00 64 1022.7
20190326035331 0 52 3.2 0.0 0.00 0.00 1.04 63 1022.5
20190326034329 0 52 3.2 0.0 0.00 0.00 1.04 64 1022.3
20190326033350 0 52 3.2 0.0 0.00 0.00 1.04 64 1022.3
20190326032335 0 52 3.2 0.0 0.00 0.00 1.04 63 1022.2
20190326031338 0 52 3.2 0.0 0.00 0.00 1.04 62 1022.1
20190326030351 1 52 3.2 0.0 0.00 0.00 1.04 61 1022.1
20190326025338 1 52 4.8 0.0 0.00 0.00 1.04 59 1022.1
20190326024340 1 52 4.8 0.0 0.00 0.00 1.04 57 1022.1
20190326023330 1 52 4.8 0.0 0.00 0.00 1.04 57 1022.1
20190326022327 1 51 4.8 0.0 0.00 0.00 1.04 54 1021.8
20190326021336 2 51 6.4 0.0 0.00 0.00 1.04 53 1021.6
20190326020329 2 48 4.8 0.0 0.00 0.00 1.04 52 1021.6
20190326015330 2 44 4.8 0.0 0.00 0.00 1.04 55 1021.4
20190326014339 2 42 4.8 0.0 0.00 0.00 1.04 54 1021.2
20190326013333 2 41 4.8 0.0 0.00 0.00 1.04 54 1021.2
20190326012352 2 47 4.8 0.0 0.00 0.00 1.04 53 1021.0
20190326011339 2 51 4.8 0.0 0.00 0.00 1.04 53 1020.8
20190326010340 3 47 4.8 0.0 0.00 0.00 1.04 52 1020.8
20190326005332 2 44 3.2 0.0 0.00 0.00 1.04 58 1020.6
20190326004333 3 42 3.2 0.0 0.00 0.00 1.04 58 1020.4
20190326003349 3 41 3.2 0.0 0.00 0.00 1.04 58 1020.4
20190326002339 3 40 3.2 0.0 0.00 0.00 1.04 60 1020.2
20190326001341 3 41 3.2 0.0 0.00 0.00 1.04 56 1019.9
20190326000329 4 40 4.8 0.0 0.00 0.00 1.04 53 1019.9
20190325235326 4 24 3.2 0.0 0.00 0.00 1.04 54 1019.7
20190325234353 5 17 4.8 0.0 0.00 0.00 1.04 58 1019.7
20190325233343 5 11 3.2 0.0 0.00 0.00 1.04 55 1019.5
20190325232345 5 32 4.8 0.0 0.00 0.00 1.04 56 1019.2
20190325231339 5 68 4.8 0.0 0.00 0.00 1.04 61 1018.9
20190325230335 6 352 3.2 0.0 0.00 0.00 1.04 59 1018.9
20190325225329 6 25 3.2 0.0 0.00 0.00 1.04 64 1018.6
20190325224330 6 32 4.8 0.0 0.00 0.00 1.04 64 1018.2
20190325223339 6 42 3.2 0.0 0.00 0.00 1.04 68 1018.2
20190325222339 7 10 3.2 0.0 0.00 0.00 1.04 66 1018.0
20190325221327 7 14 3.2 0.0 0.00 0.00 1.04 67 1017.8
20190325220343 7 8 4.8 0.0 0.00 0.00 1.04 69 1017.8
20190325215343 7 41 3.2 0.0 0.00 0.00 1.04 70 1017.6
20190325214335 7 27 4.8 0.0 0.00 0.00 1.04 74 1017.6
20190325213332 7 31 3.2 0.0 0.00 0.00 1.04 73 1017.6
20190325212353 7 10 3.2 0.0 0.00 0.00 1.04 74 1017.4
20190325211341 7 51 4.8 0.0 0.00 0.00 1.04 73 1017.4
20190325210339 6 24 3.2 0.0 0.00 0.00 1.04 76 1017.4
20190325205330 7 40 4.8 0.0 0.00 0.00 1.04 74 1017.3
20190325204334 6 45 3.2 0.0 0.00 0.00 1.04 75 1017.3
20190325203351 6 40 3.2 0.0 0.00 0.00 1.04 79 1017.3
20190325202340 6 55 4.8 0.0 0.00 0.00 1.04 79 1017.3
20190325201339 6 65 6.4 0.0 0.00 0.00 1.04 79 1017.2
20190325200356 6 48 3.2 0.0 0.00 0.00 1.04 80 1017.2
20190325195344 6 55 3.2 0.0 0.00 0.00 1.04 79 1017.2
20190325194340 6 40 4.8 0.0 0.00 0.00 1.04 79 1017.2
20190325193330 5 40 4.8 0.0 0.00 0.00 1.04 82 1017.2
20190325192333 5 37 4.8 0.0 0.00 0.00 1.04 81 1017.2
20190325191325 5 35 3.2 0.0 0.00 0.00 1.04 82 1017.2
20190325190340 5 47 4.8 0.0 0.00 0.00 1.04 83 1017.2
20190325185340 5 30 3.2 0.0 0.00 0.00 1.04 85 1017.1
20190325184328 5 37 6.4 0.0 0.00 0.00 1.04 83 1017.1
20190325183350 5 35 4.8 0.0 0.00 0.00 1.04 85 1017.1
20190325182339 5 42 3.2 0.0 0.00 0.00 1.04 85 1017.0
20190325181338 5 25 4.8 0.0 0.00 0.00 1.04 87 1017.0
20190325180332 5 28 6.4 0.0 0.00 0.00 1.04 86 1017.0
20190325175325 5 68 6.4 0.0 0.00 0.00 1.04 87 1017.0
20190325174341 5 65 6.4 0.0 0.00 0.00 1.04 88 1017.0
20190325173336 3 56 4.8 0.0 0.00 0.00 1.04 90 1017.0
20190325172341 3 48 4.8 0.0 0.00 0.00 1.04 91 1016.9
20190325171332 3 32 6.4 0.0 0.00 0.00 1.04 92 1016.9
20190325170333 2 55 4.8 0.0 0.00 0.00 1.04 93 1016.9
20190325165325 2 17 6.4 0.0 0.00 0.00 1.04 94 1016.8
20190325164326 2 30 3.2 0.0 0.00 0.00 1.04 95 1016.7
20190325163349 2 40 4.8 0.0 0.00 0.00 1.04 95 1016.7
20190325162340 2 44 4.8 0.0 0.00 0.00 1.04 95 1016.5
20190325161344 2 45 4.8 0.0 0.00 0.00 1.04 96 1016.5
20190325160335 2 40 4.8 0.0 0.00 0.00 1.04 96 1016.4
20190325155338 2 31 6.4 0.0 0.00 0.00 1.02 97 1016.3
20190325154322 2 56 4.8 0.0 0.00 0.00 0.99 96 1016.1
20190325153326 2 54 4.8 0.0 0.00 0.00 0.97 96 1016.1
20190325152347 2 38 4.8 0.0 0.00 0.00 0.97 96 1016.0
20190325151334 2 51 6.4 0.0 0.00 0.00 0.97 97 1015.8
20190325150331 3 56 4.8 0.0 0.00 0.00 0.97 97 1015.8
20190325145351 3 34 6.4 0.0 0.00 0.00 0.97 97 1015.8
20190325144335 3 27 6.4 0.0 0.00 0.00 0.97 97 1015.6
20190325143336 3 62 6.4 0.0 0.00 0.00 0.97 97 1015.6
20190325142327 3 52 6.4 0.0 0.00 0.00 0.97 98 1015.2
20190325141330 3 54 6.4 0.0 0.00 0.00 0.97 98 1015.2
20190325140346 3 61 4.8 0.0 0.00 0.00 0.97 98 1015.2
20190325135339 3 11 4.8 0.0 0.00 0.00 0.94 98 1014.8
20190325134340 4 48 4.8 0.0 0.00 0.00 0.94 97 1014.5
20190325133331 5 25 6.4 0.0 0.00 0.00 0.91 98 1014.5
20190325132353 5 41 6.4 0.0 0.00 0.00 0.89 99 1014.2
20190325131341 5 55 8.0 0.0 0.00 0.00 0.89 99 1014.0
20190325130356 5 37 8.0 0.0 0.00 0.00 0.86 99 1014.0
20190325125341 5 52 6.4 0.0 0.00 0.00 0.86 99 1013.9
20190325124347 5 34 4.8 0.0 0.00 0.00 0.86 99 1013.9
20190325123336 5 64 4.8 0.0 0.00 0.00 0.84 99 1013.8
20190325122341 5 61 6.4 0.0 0.00 0.00 0.84 99 1013.5
20190325121333 5 58 6.4 0.0 0.00 0.00 0.84 99 1013.3
20190325120327 6 40 6.4 0.0 0.00 0.00 0.81 100 1013.3
20190325115342 6 56 6.4 0.0 0.00 0.00 0.81 100 1013.0
20190325114338 6 61 6.4 0.0 0.00 0.00 0.79 100 1012.9
20190325113346 6 51 4.8 0.0 0.00 0.00 0.76 100 1012.9
20190325112339 6 51 6.4 0.0 0.00 0.00 0.74 100 1012.5
20190325111340 6 65 4.8 0.0 0.00 0.00 0.74 100 1012.3
20190325110356 6 61 4.8 0.0 0.00 0.00 0.74 100 1012.3
20190325105341 6 49 4.8 0.0 0.00 0.00 0.74 100 1012.1
20190325104331 6 55 6.4 0.0 0.00 0.00 0.71 100 1012.2
20190325103334 6 59 4.8 0.0 0.00 0.00 0.71 100 1012.2
20190325102325 6 51 4.8 0.0 0.00 0.00 0.71 100 1012.0
20190325101326 6 54 4.8 0.0 0.00 0.00 0.69 100 1012.0
20190325100341 6 66 4.8 0.0 0.00 0.00 0.69 100 1012.0
20190325095327 6 59 4.8 0.0 0.00 0.00 0.69 100 1012.0
20190325094329 6 48 4.8 0.0 0.00 0.00 0.69 100 1012.1
20190325093356 6 62 4.8 0.0 0.00 0.00 0.69 100 1012.1
20190325092329 6 52 6.4 0.0 0.00 0.00 0.69 100 1012.2
20190325091353 6 52 6.4 0.0 0.00 0.00 0.69 100 1012.2
20190325090337 6 62 6.4 0.0 0.00 0.00 0.69 100 1013.2
20190325085336 6 52 4.8 0.0 0.00 0.00 0.69 100 1013.2
20190325084333 6 54 4.8 0.0 0.00 0.00 0.69 100 1013.6
20190325083333 6 59 4.8 0.0 0.00 0.00 0.69 100 1013.6
20190325082354 6 61 4.8 0.0 0.00 0.00 0.69 100 1013.8
20190325081328 6 56 4.8 0.0 0.00 0.00 0.69 100 1014.1